Список аэропортов
Фактическая погода:

16 декабря, 14:30
Температура: +7°C (+3.8*)
Ветер: северный 5 м/с
Давление: *762 мм
облачно
990 м
слаб. дождь
Время (МСК)Темп. СВетерВлажностьДавлениеОблачностьОсадки
15:00+12З, 1 м/с64%1016 гПаоблачнодождь
16:00+12З, 1 м/с66%1016 гПаоблачнодождь
17:00+11Ю, 1 м/с68%1015 гПаоблачнодождь
18:00+11ЮВ, 1 м/с68%1014 гПаоблачнодождь
19:00+11СЗ, 3 м/с72%1013 гПаоблачнодождь
20:00+11С, 5 м/с77%1012 гПаоблачнодождь
21:00+12СВ, 5 м/с79%1011 гПаоблачнодождь
22:00+12СВ, 5 м/с80%1011 гПаоблачнодождь
23:00+12С, 5 м/с77%1011 гПаоблачнодождь
17 декабря
00:00+11С, 2 м/с72%1011 гПаоблачносл. дождь
01:00+12ЮВ, 1 м/с70%1010 гПаоблачносл. дождь
02:00+12Ю, 3 м/с73%1010 гПаоблачно
03:00+12ЮВ, 3 м/с75%1011 гПас прояснениями
04:00+12ЮВ, 4 м/с75%1011 гПаоблачно
05:00+12В, 6 м/с74%1011 гПаоблачно
06:00+12ЮВ, 5 м/с74%1012 гПаоблачно
07:00+12ЮВ, 4 м/с74%1012 гПаоблачно
08:00+12Ю, 2 м/с77%1013 гПаоблачно
09:00+11З, 1 м/с80%1013 гПаоблачно
10:00+11С, 2 м/с82%1014 гПаоблачно
11:00+11СЗ, 2 м/с76%1014 гПаоблачно
12:00+12З, 3 м/с65%1015 гПас прояснениями
13:00+13СЗ, 3 м/с57%1015 гПаясно
14:00+14С, 3 м/с54%1015 гПаясно
15:00+14С, 2 м/с53%1015 гПаясно
16:00+14В, 2 м/с67%1016 гПаясно
17:00+13ЮВ, 3 м/с76%1016 гПаясно
18:00+13ЮВ, 3 м/с73%1017 гПаясно
19:00+13СВ, 2 м/с71%1019 гПаясно
20:00+13С, 2 м/с79%1020 гПаясно
21:00+12С, 4 м/с62%1021 гПаясно
22:00+12С, 4 м/с62%1022 гПаясно
23:00+12С, 4 м/с63%1023 гПаясно
18 декабря
00:00+11С, 4 м/с67%1024 гПаясно
01:00+11С, 6 м/с56%1024 гПаясно
02:00+10СЗ, 6 м/с51%1024 гПаясно
03:00+10СЗ, 6 м/с51%1025 гПаясно
04:00+10С, 6 м/с54%1025 гПаясно
05:00+9С, 6 м/с55%1025 гПаясно
06:00+9СЗ, 6 м/с57%1025 гПас прояснениями
07:00+9СЗ, 6 м/с57%1025 гПамалооблачно
08:00+9СЗ, 6 м/с58%1026 гПаясно
09:00+9СЗ, 6 м/с60%1026 гПамалооблачно
10:00+10СЗ, 6 м/с62%1027 гПаясно
11:00+10СЗ, 5 м/с63%1027 гПаясно
12:00+11С, 5 м/с61%1028 гПаясно
13:00+12С, 4 м/с58%1027 гПаясно
14:00+12С, 3 м/с56%1026 гПамалооблачно
15:00+13С, 1 м/с51%1025 гПас прояснениями